CW8284 Weather Reports


Display with metric or nautical units.
time (UTC)temp
F
wind
direction
speed
MPH
gust
MPH
rain 1hr
in
rain 24hr
in
rain mn
in
humidity
%
barometer
mb
20260905204638 94 315 1.0 2.0 0.00 0.00 0.00 1011.3
20260905204538 94 157 1.0 2.0 0.00 0.00 0.00 1011.3
20260905204438 94 270 2.0 4.0 0.00 0.00 0.00 1011.3
20260905204338 94 225 3.0 5.0 0.00 0.00 0.00 1011.3
20260905204238 93 225 2.0 3.0 0.00 0.00 0.00 1011.5
20260905204138 94 292 3.0 6.0 0.00 0.00 0.00 1011.4
20260905204038 94 292 4.0 6.0 0.00 0.00 0.00 1011.3
20260905203938 94 225 1.0 2.0 0.00 0.00 0.00 1011.4
20260905203838 94 135 1.0 3.0 0.00 0.00 0.00 1011.4
20260905203738 94 315 2.0 2.0 0.00 0.00 0.00 1011.4
20260905203638 93 315 2.0 3.0 0.00 0.00 0.00 1011.3
20260905202338 94 135 2.0 2.0 0.00 0.00 0.00 1011.5
20260905201338 93 292 1.0 2.0 0.00 0.00 0.00 1011.9
20260905200938 93 112 2.0 5.0 0.00 0.00 0.00 1011.8
20260905200838 93 135 3.0 8.0 0.00 0.00 0.00 1011.8
20260905200438 94 180 3.0 5.0 0.00 0.00 0.00 1011.7
20260905200338 94 180 5.0 9.0 0.00 0.00 0.00 1011.8
20260905200238 95 225 5.0 7.0 0.00 0.00 0.00 1011.9
20260905200138 95 225 2.0 4.0 0.00 0.00 0.00 1011.7
20260905200038 95 135 1.0 2.0 0.00 0.00 0.00 1011.7
20260905195038 93 202 1.0 2.0 0.00 0.00 0.00 1012.0
20260905194338 92 135 2.0 2.0 0.00 0.00 0.00 1011.9
20260905193338 92 315 1.0 2.0 0.00 0.00 0.00 1012.0
20260905193238 92 180 4.0 5.0 0.00 0.00 0.00 1012.2
20260905192838 90 135 1.0 3.0 0.00 0.00 0.00 1012.1
20260905192138 89 202 1.0 2.0 0.00 0.00 0.00 1012.0
20260905192038 89 157 1.0 2.0 0.00 0.00 0.00 1012.2
20260905191938 90 270 1.0 2.0 0.00 0.00 0.00 1012.2
20260905191838 90 157 2.0 3.0 0.00 0.00 0.00 1012.1
20260905191438 90 135 1.0 4.0 0.00 0.00 0.00 1012.0
20260905191038 90 202 2.0 4.0 0.00 0.00 0.00 1012.1
20260905190938 90 225 1.0 1.0 0.00 0.00 0.00 1012.0
20260905190838 90 247 2.0 3.0 0.00 0.00 0.00 1012.1
20260905190138 91 180 1.0 2.0 0.00 0.00 0.00 1012.4
20260905190038 91 202 0.0 1.0 0.00 0.00 0.00 1012.4
20260905184438 88 225 1.0 2.0 0.00 0.00 0.00 1012.6
20260905184338 88 270 0.0 1.0 0.00 0.00 0.00 1012.7
20260905184238 88 270 2.0 4.0 0.00 0.00 0.00 1012.7
20260905184138 89 225 1.0 1.0 0.00 0.00 0.00 1012.8
20260905184038 89 180 1.0 2.0 0.00 0.00 0.00 1012.8
20260905180938 86 135 1.0 2.0 0.00 0.00 0.00 1013.3
20260905180838 86 315 1.0 2.0 0.00 0.00 0.00 1013.1
20260905180138 85 157 1.0 2.0 0.00 0.00 0.00 1013.1
20260905175738 84 315 1.0 2.0 0.00 0.00 0.00 1013.2
20260905174738 82 292 3.0 4.0 0.00 0.00 0.00 1013.1
20260905174638 82 337 1.0 2.0 0.00 0.00 0.00 1013.1
20260905174538 82 315 2.0 2.0 0.00 0.00 0.00 1013.1
20260905174438 82 22 1.0 2.0 0.00 0.00 0.00 1013.2
20260905174038 81 202 2.0 2.0 0.00 0.00 0.00 1013.0
20260905173938 81 225 2.0 2.0 0.00 0.00 0.00 1013.1
20260905173838 82 225 1.0 2.0 0.00 0.00 0.00 1013.1
20260905173738 82 180 1.0 2.0 0.00 0.00 0.00 1013.1
20260905173638 82 225 1.0 1.0 0.00 0.00 0.00 1013.2
20260905173538 82 337 0.0 2.0 0.00 0.00 0.00 1013.0
20260905170138 84 337 1.0 2.0 0.00 0.00 0.00 1013.1
20260905170038 84 202 1.0 3.0 0.00 0.00 0.00 1013.2
20260905165638 84 112 0.0 1.0 0.00 0.00 0.00 1012.9
20260905165538 84 202 1.0 2.0 0.00 0.00 0.00 1013.0
20260905165438 84 315 2.0 2.0 0.00 0.00 0.00 1013.1
20260905165338 85 67 2.0 2.0 0.00 0.00 0.00 1012.9
20260905164938 84 270 0.0 0.0 0.00 0.00 0.00 1013.0
20260905163638 81 112 1.0 3.0 0.00 0.00 0.00 1013.1
20260905162638 80 0 0.0 1.0 0.00 0.00 0.00 1013.0
20260905162238 80 0 1.0 2.0 0.00 0.00 0.00 1013.3
20260905161838 79 22 2.0 3.0 0.00 0.00 0.00 1013.0
20260905161438 78 0 0.0 0.0 0.00 0.00 0.00 1013.1
20260905160138 77 45 0.0 1.0 0.00 0.00 0.00 1012.9
20260905160038 77 67 1.0 1.0 0.00 0.00 0.00 1013.1
20260905155938 77 315 0.0 0.0 0.00 0.00 0.00 1012.9
20260905154338 70 0 1.0 1.0 0.00 0.00 0.00 1012.8
20260905154238 70 0 1.0 2.0 0.00 0.00 0.00 1012.7
20260905153538 71 202 0.0 1.0 0.00 0.00 0.00 1012.8
20260905152839 72 180 0.0 0.0 0.00 0.00 0.00 1012.8
20260905151838 67 315 1.0 1.0 0.00 0.00 0.00 1012.6
20260905151138 66 225 1.0 1.0 0.00 0.00 0.00 1012.7
20260905151038 66 225 1.0 2.0 0.00 0.00 0.00 1012.6
20260905150638 67 225 1.0 2.0 0.00 0.00 0.00 1012.6
20260905150539 67 292 1.0 2.0 0.00 0.00 0.00 1012.6
20260905150438 67 225 1.0 2.0 0.00 0.00 0.00 1012.5
20260905150339 68 180 1.0 2.0 0.00 0.00 0.00 1012.5
20260905145939 69 202 1.0 2.0 0.00 0.00 0.00 1012.6
20260905144940 65 225 0.0 0.0 0.00 0.00 0.00 1012.1
20260905144539 64 315 0.0 1.0 0.00 0.00 0.00 1012.2
20260905144440 63 337 1.0 1.0 0.00 0.00 0.00 1012.3
20260905144338 63 315 2.0 2.0 0.00 0.00 0.00 1012.4
20260905143038 66 22 0.0 0.0 0.00 0.00 0.00 1012.4
20260905142038 65 67 0.0 0.0 0.00 0.00 0.00 1012.3
20260905140738 61 45 0.0 0.0 0.00 0.00 0.00 1012.1
20260905140638 61 45 0.0 0.0 0.00 0.00 0.00 1012.2
20260905140538 60 45 0.0 0.0 0.00 0.00 0.00 1012.2
20260905140138 59 45 0.0 1.0 0.00 0.00 0.00 1012.2
20260905140038 59 45 1.0 2.0 0.00 0.00 0.00 1012.2
20260905135638 57 67 1.0 2.0 0.00 0.00 0.00 1012.3
20260905135538 57 0 1.0 2.0 0.00 0.00 0.00 1012.1
20260905135438 57 45 0.0 1.0 0.00 0.00 0.00 1012.1
20260905135338 56 22 0.0 0.0 0.00 0.00 0.00 1012.1
20260905135238 56 22 0.0 0.0 0.00 0.00 0.00 1012.3
20260905134838 55 315 0.0 0.0 0.00 0.00 0.00 1012.3
20260905134739 55 315 0.0 0.0 0.00 0.00 0.00 1012.3
20260905134338 55 292 0.0 0.0 0.00 0.00 0.00 1012.1
20260905134238 55 292 0.0 0.0 0.00 0.00 0.00 1012.1
20260905133238 55 0 0.0 0.0 0.00 0.00 0.00 1011.9
20260905132838 55 0 0.0 0.0 0.00 0.00 0.00 1011.8
20260905132138 55 0 0.0 0.0 0.00 0.00 0.00 1012.0
20260905131739 55 0 0.0 0.0 0.00 0.00 0.00 1011.5
20260905131638 55 0 0.0 0.0 0.00 0.00 0.00 1011.5
20260905131539 55 0 0.0 0.0 0.00 0.00 0.00 1011.5
20260905131438 55 0 0.0 0.0 0.00 0.00 0.00 1011.3
20260905125838 55 315 0.0 0.0 0.00 0.00 0.00 1011.5
20260905125438 55 270 0.0 0.0 0.00 0.00 0.00 1011.6
20260905125338 55 270 0.0 0.0 0.00 0.00 0.00 1011.5
20260905125238 55 270 0.0 0.0 0.00 0.00 0.00 1011.5
20260905125138 55 225 0.0 0.0 0.00 0.00 0.00 1011.5
20260905124738 55 180 0.0 0.0 0.00 0.00 0.00 1011.5
20260905124638 55 180 0.0 0.0 0.00 0.00 0.00 1011.6
20260905123938 55 202 0.0 0.0 0.00 0.00 0.00 1011.4
20260905123838 55 202 0.0 0.0 0.00 0.00 0.00 1011.5
20260905123738 55 202 0.0 0.0 0.00 0.00 0.00 1011.4
20260905123638 55 0 0.0 0.0 0.00 0.00 0.00 1011.4
20260905123538 55 0 0.0 0.0 0.00 0.00 0.00 1011.4
20260905123438 55 0 0.0 0.0 0.00 0.00 0.00 1011.4
20260905123339 55 0 0.0 0.0 0.00 0.00 0.00 1011.5
20260905122638 55 292 0.0 0.0 0.00 0.00 0.00 1011.5
20260905121638 55 292 0.0 0.0 0.00 0.00 0.00 1011.6
20260905121538 55 292 0.0 0.0 0.00 0.00 0.00 1011.4
20260905120838 55 337 0.0 0.0 0.00 0.00 0.00 1011.6
20260905115838 56 45 0.0 0.0 0.00 0.00 0.00 1011.6
20260905115738 56 45 0.0 0.0 0.00 0.00 0.00 1011.6
20260905115339 56 45 0.0 0.0 0.00 0.00 0.00 1011.6
20260905114938 56 0 0.0 0.0 0.00 0.00 0.00 1011.5
20260905113938 57 0 0.0 0.0 0.00 0.00 0.00 1011.8
20260905113239 57 337 0.0 0.0 0.00 0.00 0.00 1011.6
20260905111938 56 337 0.0 0.0 0.00 0.00 0.00 1011.8
20260905111838 56 0 0.0 0.0 0.00 0.00 0.00 1011.9
20260905111739 57 22 0.0 0.0 0.00 0.00 0.00 1011.9
20260905111338 57 22 0.0 0.0 0.00 0.00 0.00 1011.9
20260905110938 57 22 0.0 0.0 0.00 0.00 0.00 1011.9
20260905110838 57 22 0.0 0.0 0.00 0.00 0.00 1011.8
20260905110738 57 22 0.0 0.0 0.00 0.00 0.00 1011.6
20260905110638 57 22 0.0 0.0 0.00 0.00 0.00 1011.8
20260905105938 58 22 0.0 0.0 0.00 0.00 0.00 1011.8
20260905105538 58 337 0.0 0.0 0.00 0.00 0.00 1011.8
20260905105438 58 315 0.0 0.0 0.00 0.00 0.00 1011.7
20260905105338 58 292 0.0 0.0 0.00 0.00 0.00 1011.8
20260905105238 58 315 0.0 0.0 0.00 0.00 0.00 1012.0
20260905104538 58 337 0.0 0.0 0.00 0.00 0.00 1011.8
20260905104438 57 315 0.0 0.0 0.00 0.00 0.00 1012.0
20260905103738 58 337 0.0 0.0 0.00 0.00 0.00 1012.0
20260905103038 58 22 0.0 0.0 0.00 0.00 0.00 1012.0
20260905102638 58 45 0.0 0.0 0.00 0.00 0.00 1012.2
20260905102238 58 0 1.0 1.0 0.00 0.00 0.00 1012.1
20260905101538 58 22 0.0 1.0 0.00 0.00 0.00 1012.1
20260905101438 58 22 1.0 1.0 0.00 0.00 0.00 1012.2
20260905101338 58 0 1.0 1.0 0.00 0.00 0.00 1012.2
20260905100638 57 315 0.0 0.0 0.00 0.00 0.00 1012.0
20260905100538 57 45 0.0 0.0 0.00 0.00 0.00 1011.8
20260905100138 57 22 0.0 0.0 0.00 0.00 0.00 1012.0
20260905095738 57 22 0.0 0.0 0.00 0.00 0.00 1011.8
20260905095638 58 22 0.0 0.0 0.00 0.00 0.00 1012.1
20260905095538 58 22 0.0 0.0 0.00 0.00 0.00 1012.0
20260905095138 58 22 0.0 0.0 0.00 0.00 0.00 1012.0
20260905094438 58 67 0.0 0.0 0.00 0.00 0.00 1012.0
20260905094338 58 67 0.0 0.0 0.00 0.00 0.00 1011.9
20260905094238 58 67 0.0 0.0 0.00 0.00 0.00 1012.0
20260905092938 57 315 0.0 0.0 0.00 0.00 0.00 1011.9
20260905092838 57 315 0.0 0.0 0.00 0.00 0.00 1012.2
20260905092138 58 22 0.0 0.0 0.00 0.00 0.00 1011.7
20260905091438 58 22 0.0 0.0 0.00 0.00 0.00 1011.9
20260905091338 58 22 0.0 0.0 0.00 0.00 0.00 1011.7
20260905091238 58 22 0.0 0.0 0.00 0.00 0.00 1011.8
20260905091138 58 22 0.0 0.0 0.00 0.00 0.00 1011.7
20260905085538 59 292 0.0 0.0 0.00 0.00 0.00 1011.9
20260905085438 59 292 0.0 0.0 0.00 0.00 0.00 1011.9
20260905085038 59 315 0.0 0.0 0.00 0.00 0.00 1011.8
20260905084938 59 292 0.0 0.0 0.00 0.00 0.00 1011.9
20260905083338 59 337 0.0 0.0 0.00 0.00 0.00 1012.2
20260905083238 59 337 0.0 0.0 0.00 0.00 0.00 1012.3
20260905082838 59 315 0.0 0.0 0.00 0.00 0.00 1012.3
20260905082739 60 315 0.0 0.0 0.00 0.00 0.00 1012.2
20260905082638 59 337 0.0 0.0 0.00 0.00 0.00 1012.2
20260905081638 59 0 0.0 0.0 0.00 0.00 0.00 1012.3
20260905081538 59 315 0.0 0.0 0.00 0.00 0.00 1012.2
20260905081438 59 315 0.0 0.0 0.00 0.00 0.00 1012.4
20260905080738 59 315 0.0 0.0 0.00 0.00 0.00 1012.3
20260905080038 59 315 0.0 0.0 0.00 0.00 0.00 1012.2
20260905075938 60 315 0.0 0.0 0.00 0.00 0.00 1012.3
20260905075538 59 292 0.0 0.0 0.00 0.00 0.00 1012.2
20260905075438 59 292 0.0 0.0 0.00 0.00 0.00 1012.1
20260905075338 59 292 0.0 0.0 0.00 0.00 0.00 1012.2
20260905074338 60 157 0.0 0.0 0.00 0.00 0.00 1011.9
20260905073938 60 157 0.0 0.0 0.00 0.00 0.00 1012.2
20260905072638 61 292 0.0 0.0 0.00 0.00 0.00 1011.9
20260905071938 61 315 0.0 0.0 0.00 0.00 0.00 1011.9
20260905071538 62 337 0.0 0.0 0.00 0.00 0.00 1011.9
20260905071138 62 0 0.0 0.0 0.00 0.00 0.00 1011.8
20260905065238 63 270 0.0 0.0 0.00 0.00 0.00 1012.1
20260905065138 63 225 0.0 0.0 0.00 0.00 0.00 1012.2
20260905065038 63 135 0.0 0.0 0.00 0.00 0.00 1012.1
20260905063138 64 157 0.0 0.0 0.00 0.00 0.00 1012.0
20260905062738 64 180 0.0 0.0 0.00 0.00 0.00 1011.9
20260905062638 64 135 0.0 0.0 0.00 0.00 0.00 1011.9
20260905062538 64 135 0.0 0.0 0.00 0.00 0.00 1011.9
20260905062438 64 135 0.0 0.0 0.00 0.00 0.00 1011.9
20260905061438 64 270 0.0 0.0 0.00 0.00 0.00 1011.8
20260905060738 64 337 0.0 0.0 0.00 0.00 0.00 1011.9
20260905060638 64 337 0.0 0.0 0.00 0.00 0.00 1011.9
20260905060538 64 337 0.0 0.0 0.00 0.00 0.00 1011.8
20260905055838 65 292 0.0 0.0 0.00 0.00 0.00 1011.5
20260905055438 66 315 0.0 0.0 0.00 0.00 0.00 1011.5
20260905055038 67 225 0.0 0.0 0.00 0.00 0.00 1011.8
20260905054938 67 225 0.0 1.0 0.00 0.00 0.00 1011.7
20260905054238 67 202 0.0 0.0 0.00 0.00 0.00 1011.5
20260905054138 67 180 0.0 0.0 0.00 0.00 0.00 1011.8
20260905054038 67 202 0.0 1.0 0.00 0.00 0.00 1011.8
20260905053938 67 157 0.0 2.0 0.00 0.00 0.00 1011.7
20260905053838 68 247 0.0 1.0 0.00 0.00 0.00 1011.7
20260905053738 68 337 0.0 2.0 0.00 0.00 0.00 1011.8
20260905051238 68 202 1.0 2.0 0.00 0.00 0.00 1011.6
20260905045638 68 202 0.0 1.0 0.00 0.00 0.00 1011.7
20260905045238 68 135 0.0 1.0 0.00 0.00 0.00 1011.7
20260905045138 68 180 0.0 0.0 0.00 0.00 0.00 1011.7
20260905045038 68 202 0.0 1.0 0.00 0.00 0.00 1011.7
20260905044938 69 157 0.0 1.0 0.00 0.00 0.00 1011.7
20260905044538 69 225 1.0 2.0 0.00 0.00 0.00 1011.7
20260905044138 69 225 0.0 1.0 0.00 0.00 0.00 1011.7
20260905044038 69 225 0.0 1.0 0.00 0.00 0.00 1011.6
20260905042738 69 180 0.0 2.0 0.00 0.00 0.00 1011.5
20260905042338 69 157 0.0 0.0 0.00 0.00 0.00 1011.2
20260905042238 69 157 0.0 0.0 0.00 0.00 0.00 1011.2
20260905042139 69 157 0.0 1.0 0.00 0.00 0.00 1011.2
20260905040838 70 202 1.0 2.0 0.00 0.00 0.00 1011.0
20260905040438 70 292 2.0 3.0 0.00 0.00 0.00 1010.9
20260905040338 70 225 2.0 4.0 0.00 0.00 0.00 1011.2
20260905040238 70 202 2.0 3.0 0.00 0.00 0.00 1010.9
20260905035838 71 202 2.0 2.0 0.00 0.00 0.00 1010.9
20260905035738 71 225 2.0 3.0 0.00 0.00 0.00 1010.9
20260905035638 71 225 2.0 3.0 0.00 0.00 0.00 1010.9
20260905035538 71 225 0.0 1.0 0.00 0.00 0.00 1010.9
20260905034838 71 180 0.0 1.0 0.00 0.00 0.00 1010.9
20260905032338 72 202 1.0 3.0 0.00 0.00 0.00 1010.4
20260905032238 72 225 1.0 3.0 0.00 0.00 0.00 1010.4
20260905031838 72 225 2.0 4.0 0.00 0.00 0.00 1010.4
20260905031738 73 247 1.0 4.0 0.00 0.00 0.00 1010.4
20260905031638 73 247 1.0 4.0 0.00 0.00 0.00 1010.4
20260905030938 73 67 0.0 1.0 0.00 0.00 0.00 1010.4
20260905030538 73 157 1.0 3.0 0.00 0.00 0.00 1010.5
20260905030138 73 202 2.0 4.0 0.00 0.00 0.00 1010.5
20260905030038 73 270 0.0 1.0 0.00 0.00 0.00 1010.5
20260905025938 73 270 1.0 2.0 0.00 0.00 0.00 1010.1
20260905025838 73 157 1.0 3.0 0.00 0.00 0.00 1010.4
20260905025438 74 247 2.0 3.0 0.00 0.00 0.00 1010.3
20260905024438 74 202 1.0 2.0 0.00 0.00 0.00 1010.0
20260905024338 74 202 1.0 2.0 0.00 0.00 0.00 1010.0
20260905024238 74 247 0.0 1.0 0.00 0.00 0.00 1010.3
20260905024138 74 202 1.0 2.0 0.00 0.00 0.00 1010.1
20260905024038 74 202 0.0 0.0 0.00 0.00 0.00 1010.3
20260905023938 74 180 1.0 2.0 0.00 0.00 0.00 1010.3
20260905023238 74 180 1.0 2.0 0.00 0.00 0.00 1010.3
20260905023138 74 202 1.0 2.0 0.00 0.00 0.00 1010.4
20260905022738 75 180 0.0 0.0 0.00 0.00 0.00 1010.3
20260905022638 75 157 1.0 2.0 0.00 0.00 0.00 1010.3
20260905021938 75 225 1.0 3.0 0.00 0.00 0.00 1010.2
20260905021538 75 180 2.0 3.0 0.00 0.00 0.00 1010.3
20260905021438 76 225 2.0 4.0 0.00 0.00 0.00 1010.2
20260905021338 76 180 1.0 2.0 0.00 0.00 0.00 1010.2
20260905021238 76 225 2.0 4.0 0.00 0.00 0.00 1010.4
20260905021138 76 225 3.0 4.0 0.00 0.00 0.00 1010.2
20260905020738 76 247 3.0 4.0 0.00 0.00 0.00 1010.4
20260905015138 77 225 1.0 3.0 0.00 0.00 0.00 1010.2
20260905014438 77 135 2.0 3.0 0.00 0.00 0.00 1010.2
20260905014338 77 157 2.0 4.0 0.00 0.00 0.00 1010.3
20260905013038 79 135 2.0 4.0 0.00 0.00 0.00 1010.3
20260905012038 79 247 6.0 7.0 0.00 0.00 0.00 1010.4
20260905011638 80 202 1.0 2.0 0.00 0.00 0.00 1010.3
20260905011238 80 157 3.0 5.0 0.00 0.00 0.00 1010.4
20260905011138 80 225 3.0 5.0 0.00 0.00 0.00 1010.3
20260905005238 81 202 3.0 6.0 0.00 0.00 0.00 1010.4
20260905005138 81 135 1.0 2.0 0.00 0.00 0.00 1010.3
20260905005038 81 202 4.0 8.0 0.00 0.00 0.00 1010.3
20260905004638 81 202 4.0 5.0 0.00 0.00 0.00 1010.3
20260905004538 81 225 3.0 5.0 0.00 0.00 0.00 1010.2
20260905004438 81 247 2.0 3.0 0.00 0.00 0.00 1010.3
20260905004038 81 202 2.0 6.0 0.00 0.00 0.00 1010.3
20260905003638 82 225 5.0 7.0 0.00 0.00 0.00 1010.4
20260905003538 82 202 3.0 5.0 0.00 0.00 0.00 1010.2
20260905003438 82 180 4.0 7.0 0.00 0.00 0.00 1010.2
20260905001838 83 202 2.0 3.0 0.00 0.00 0.00 1010.3
20260905001738 83 247 1.0 2.0 0.00 0.00 0.00 1010.1
20260905001638 83 180 1.0 2.0 0.00 0.00 0.00 1010.2
20260905001238 83 180 2.0 3.0 0.00 0.00 0.00 1010.1
20260905001138 83 225 3.0 7.0 0.00 0.00 0.00 1010.4
20260905000738 83 157 3.0 6.0 0.00 0.00 0.00 1010.4
20260905000340 84 225 1.0 3.0 0.00 0.00 0.00 1010.1
20260904235938 84 225 3.0 5.0 0.00 0.00 0.00 1010.3
20260904235238 84 225 5.0 7.0 0.00 0.00 0.00 1010.2
20260904235138 84 225 4.0 8.0 0.00 0.00 0.00 1010.3
20260904234738 84 202 3.0 7.0 0.00 0.00 0.00 1010.1
20260904234638 84 225 5.0 8.0 0.00 0.00 0.00 1010.3
20260904234238 84 202 5.0 7.0 0.00 0.00 0.00 1010.2
20260904233840 85 225 4.0 6.0 0.00 0.00 0.00 1010.2
20260904233738 85 157 2.0 3.0 0.00 0.00 0.00 1010.1
20260904233643 85 202 4.0 7.0 0.00 0.00 0.00 1010.1
20260904233238 85 180 4.0 6.0 0.00 0.00 0.00 1010.2
20260904233138 85 202 4.0 8.0 0.00 0.00 0.00 1010.2
20260904233038 85 180 2.0 6.0 0.00 0.00 0.00 1010.5
20260904232938 85 157 3.0 8.0 0.00 0.00 0.00 1010.2
20260904232538 85 225 4.0 6.0 0.00 0.00 0.00 1010.1
20260904232138 85 180 4.0 10.0 0.00 0.00 0.00 1010.2
20260904232038 85 157 5.0 8.0 0.00 0.00 0.00 1010.5
20260904231338 86 202 3.0 4.0 0.00 0.00 0.00 1010.3
20260904231238 86 180 4.0 8.0 0.00 0.00 0.00 1010.2
20260904230538 87 180 2.0 4.0 0.00 0.00 0.00 1010.3
20260904230438 87 270 3.0 5.0 0.00 0.00 0.00 1010.3
20260904225738 88 202 4.0 6.0 0.00 0.00 0.00 1010.3
20260904225338 89 202 3.0 4.0 0.00 0.00 0.00 1010.5
20260904224938 90 225 2.0 4.0 0.00 0.00 0.00 1010.5
20260904224538 91 225 3.0 6.0 0.00 0.00 0.00 1010.6
20260904224438 91 180 2.0 5.0 0.00 0.00 0.00 1010.4
20260904224338 91 202 3.0 8.0 0.00 0.00 0.00 1010.4
20260904224238 92 225 7.0 11.0 0.00 0.00 0.00 1010.4
20260904223838 91 180 1.0 2.0 0.00 0.00 0.00 1010.3
20260904223738 91 157 1.0 3.0 0.00 0.00 0.00 1010.4
20260904223638 91 225 2.0 4.0 0.00 0.00 0.00 1010.5
20260904222938 92 180 4.0 6.0 0.00 0.00 0.00 1010.5
20260904221638 94 157 1.0 3.0 0.00 0.00 0.00 1010.4
20260904221238 93 180 2.0 4.0 0.00 0.00 0.00 1010.4
20260904221138 93 202 2.0 4.0 0.00 0.00 0.00 1010.4
20260904221038 94 247 2.0 3.0 0.00 0.00 0.00 1010.5
20260904215438 91 202 2.0 4.0 0.00 0.00 0.00 1010.6
20260904214438 93 157 4.0 8.0 0.00 0.00 0.00 1010.5
20260904213139 92 202 2.0 3.0 0.00 0.00 0.00 1010.7
20260904213038 92 202 1.0 3.0 0.00 0.00 0.00 1010.6